This is the latest recevied weather packets stored in our database for station/object KG4ZVW. If no packets are shown the sender has not sent any weather packets the latest 1 day(s).
| Time | Temp. | Humidity | Pressure | Rain* | Wind** | Luminosity | Snow |
|---|---|---|---|---|---|---|---|
| 1777998807 | 27.78° C | 55% | 1016.1 hPa | 0 mm | 2.24 m/s, 103° | 1005 W/m² | - |
| 1777998505 | 27.78° C | 57% | 1016.1 hPa | 0 mm | 1.79 m/s, 107° | 1020 W/m² | - |
| 1777998220 | 27.78° C | 58% | 1016.1 hPa | 0 mm | 3.13 m/s, 51° | 925 W/m² | - |
| 1777997914 | 27.78° C | 56% | 1016.1 hPa | 0 mm | 4.02 m/s, 51° | 958 W/m² | - |
| 1777997609 | 28.33° C | 57% | 1016.1 hPa | 0 mm | 3.58 m/s, 71° | 949 W/m² | - |
| 1777997303 | 28.33° C | 60% | 1016.2 hPa | 0 mm | 2.68 m/s, 95° | 933 W/m² | - |
| 1777996998 | 28.33° C | 59% | 1016.2 hPa | 0 mm | 1.34 m/s, 98° | 888 W/m² | - |
| 1777996717 | 28.33° C | 56% | 1016.2 hPa | 0 mm | 3.58 m/s, 46° | 935 W/m² | - |
| 1777996413 | 28.33° C | 58% | 1016.1 hPa | 0 mm | 3.13 m/s, 60° | 870 W/m² | - |
| 1777996109 | 28.33° C | 58% | 1016.1 hPa | 0 mm | 1.79 m/s, 55° | 872 W/m² | - |
| 1777995806 | 28.33° C | 61% | 1016.1 hPa | 0 mm | 0.89 m/s, 75° | 886 W/m² | - |
| 1777995504 | 28.33° C | 59% | 1016.1 hPa | 0 mm | 1.34 m/s, 78° | 824 W/m² | - |
| 1777995199 | 28.33° C | 58% | 1016.1 hPa | 0 mm | 2.24 m/s, 49° | 809 W/m² | - |
| 1777994919 | 28.33° C | 58% | 1016.1 hPa | 0 mm | 3.13 m/s, 80° | 853 W/m² | - |
| 1777994613 | 27.78° C | 60% | 1016.1 hPa | 0 mm | 1.79 m/s, 57° | 865 W/m² | - |
| 1777994309 | 27.78° C | 61% | 1016.1 hPa | 0 mm | 2.24 m/s, 53° | 861 W/m² | - |
| 1777994005 | 27.78° C | 59% | 1016.1 hPa | 0 mm | 0.89 m/s, 61° | 842 W/m² | - |
| 1777993702 | 27.78° C | 60% | 1015.9 hPa | 0 mm | 2.68 m/s, 88° | 802 W/m² | - |
| 1777993417 | 27.78° C | 61% | 1015.9 hPa | 0 mm | 1.79 m/s, 19° | 789 W/m² | - |
| 1777993112 | 27.78° C | 62% | 1015.9 hPa | 0 mm | 2.24 m/s, 78° | 775 W/m² | - |
| 1777992812 | 27.78° C | 60% | 1015.9 hPa | 0 mm | 2.24 m/s, 38° | 765 W/m² | - |
| 1777992509 | 27.78° C | 59% | 1015.9 hPa | 0 mm | 2.68 m/s, 100° | 759 W/m² | - |
| 1777992204 | 27.78° C | 61% | 1015.9 hPa | 0 mm | 0.89 m/s, 37° | 744 W/m² | - |
| 1777991921 | 27.22° C | 61% | 1015.6 hPa | 0 mm | 3.13 m/s, 61° | 724 W/m² | - |
| 1777991615 | 27.22° C | 59% | 1015.6 hPa | 0 mm | 1.79 m/s, 72° | 717 W/m² | - |
* Rain latest hour (hover to see other rain measurements)
** Current wind speed in m/s (hover to see current wind gust speed)